SITRO-AIS 26

Last updated on Fri Jul 10 2026 00:03:49 GMT+0000 (Coordinated Universal Time)

1 59067U 24039S 26190.28861890 .00001806 00000+0 14366-3 0 9992 2 59067 95.3897 250.1733 0142749 251.0615 107.5094 14.93414086128016
UTC large
Height (km)
Speed (km/s)
/
Latitude / Longitude
Inclination (degrees)
Orbital Period (minutes)
Azimuth
Elevation
Range (km)
Doppler Factor

Next 0 passes for location: London (51.5072 / 0.1276)

No passes found over London.
SITRO-AIS 26